Location: Bégole
(43.1574°N, 0.3291°E)
Time: 20:22:19
(UTC+00:00)

FENGYUN 1C DEB - Visible Passes

Search period start: 26 February 2024 00:00
Search period end: 07 March 2024 00:00
Orbit: 847 x 939 km, 99.3° (Epoch: 26 February)

Date Brightness Start Highest point End Pass type
(mag) Time Alt. Az. Time Alt. Az. Time Alt. Az.
26 Feb ? 18:49:20 10° SSE 18:54:59 57° ENE 19:00:47 10° N visible
26 Feb ? 20:32:24 10° SW 20:36:51 23° W 20:41:24 10° NW visible
27 Feb ? 18:50:01 10° SSE 18:55:41 58° ENE 19:01:30 10° N visible
27 Feb ? 20:33:07 10° SW 20:37:33 22° W 20:42:05 10° NW visible
28 Feb ? 18:50:42 10° SSE 18:56:23 58° ENE 19:02:12 10° N visible
28 Feb ? 20:33:50 10° SW 20:38:15 22° W 20:42:46 10° NW visible
29 Feb ? 18:51:22 10° SSE 18:57:05 59° ENE 19:02:55 10° N visible
29 Feb ? 20:34:33 10° SW 20:38:57 22° W 20:43:27 10° NW visible
01 Mar ? 18:52:03 10° SSE 18:57:46 59° ENE 19:03:36 10° N visible
01 Mar ? 20:35:16 10° SW 20:39:39 22° W 20:44:08 10° NW visible
02 Mar ? 18:52:43 10° SSE 18:58:28 60° ENE 19:04:19 10° N visible
02 Mar ? 20:35:59 10° SW 20:40:22 22° W 20:44:48 10° NW visible
03 Mar ? 18:53:24 10° SSE 18:59:10 61° ENE 19:05:01 10° N visible
03 Mar ? 20:36:43 10° SW 20:41:04 21° W 20:45:29 10° NW visible
04 Mar ? 18:54:05 10° SSE 18:59:51 61° ENE 19:05:43 10° N visible
04 Mar ? 20:37:25 10° SW 20:41:45 21° W 20:46:10 10° NW visible
05 Mar ? 18:54:45 10° SSE 19:00:32 62° ENE 19:06:25 10° N visible
05 Mar ? 20:38:08 10° SW 20:42:28 21° W 20:46:51 10° NW visible
06 Mar ? 18:55:26 10° SSE 19:01:14 63° ENE 19:07:07 10° N visible
06 Mar ? 20:38:51 10° SW 20:43:09 21° W 20:47:31 10° NW visible
